Wind_Speed
8 8 7 8 8 6 3 3 1 2 2 1 2 1 4 5 2 3 4 2 3 3 3 3 6 5 6 6 7 6 5 4 4 4 3 3 14 23 23 17 15 22 21 17 15 13 13 13 13 14 15 15 15 15 14 14 13 13 14 13 13 13 13 14 15 15 15 15 16 17 17 16 17 17 16 16 16 16 16 16 16 17 16 16 16 16 16 16 16 17 17 17 16 17 18 20 21
8 7 6 6 5 2 1 3 2 3 3 2 3 4 4 4 2 4 4 2 3 1 5 8 8 8 7 7 5 5 5 4 0 3 1 6 17 21 21 14 16 23 20 17 15 14 13 13 13 13 15 15 16 15 14 14 13 12 13 13 13 13 13 13 14 15 15 15 15 16 16 16 16 16 16 15 15 15 15 15 15 16 15 15 16 16 16 16 17 18 18 17 17 18 20 21 22
7 6 5 3 3 3 1 3 2 0 2 2 4 4 4 3 4 7 7 7 8 7 9 8 6 5 4 5 3 3 1 4 2 2 3 11 13 15 19 12 17 23 18 17 15 14 13 12 13 13 14 15 16 15 15 14 14 13 12 13 13 13 13 13 13 13 14 14 14 14 15 15 15 15 15 15 15 14 14 14 14 15 15 14 15 16 17 16 16 18 19 18 18 19 20 21 23
7 6 4 1 1 3 3 3 2 4 2 3 1 3 3 0 2 0 7 11 11 8 6 4 5 3 3 7 2 3 2 1 2 3 4 7 9 15 18 13 19 22 17 16 15 14 13 13 13 12 14 15 15 15 15 15 14 13 12 13 14 14 13 13 13 13 13 13 13 13 14 14 14 14 14 15 16 15 15 15 14 15 14 13 14 16 18 17 16 17 19 19 19 19 20 21 22
7 5 3 2 2 1 2 2 1 4 3 4 1 3 1 4 5 6 5 7 7 5 4 4 3 2 3 5 1 1 2 1 2 4 6 6 12 18 17 16 21 20 16 15 15 14 13 13 13 13 14 15 15 14 15 15 14 14 13 13 14 14 14 13 13 13 12 12 12 13 13 13 13 13 13 14 15 15 15 15 14 14 13 12 12 15 18 18 17 17 19 20 19 18 19 20 22
6 3 3 3 2 1 2 1 2 2 5 4 2 4 3 4 4 5 3 4 3 3 3 5 5 4 3 2 1 2 0 3 4 4 8 11 17 19 18 20 21 18 14 14 14 13 13 14 13 14 15 15 14 14 14 14 14 14 13 13 14 15 15 14 13 13 12 11 11 12 12 12 13 13 13 14 14 14 14 14 13 13 12 12 12 13 17 18 18 19 20 20 18 17 18 19 22
4 2 2 3 1 1 3 2 4 3 5 6 4 4 4 3 3 3 2 4 4 2 1 4 8 8 3 0 1 4 3 4 6 7 13 18 21 20 21 22 20 16 13 14 14 13 14 14 14 14 14 15 14 14 14 13 13 13 14 14 14 14 15 14 13 13 12 12 11 11 11 12 12 13 14 14 14 13 13 13 12 12 11 11 11 13 16 17 19 21 23 22 19 18 18 20 22
4 1 1 3 1 2 3 1 3 3 4 4 5 5 2 2 3 1 2 0 1 1 3 6 6 6 1 0 2 4 5 7 9 13 19 22 22 21 21 22 19 15 13 14 13 13 14 14 15 14 14 14 13 13 13 13 13 13 14 14 15 14 15 14 13 13 12 12 11 11 11 12 12 12 13 14 14 13 13 12 12 12 12 10 10 12 14 16 18 21 23 22 20 18 18 19 19
4 2 1 3 1 1 1 2 3 4 5 5 7 8 2 5 5 4 4 4 2 5 6 6 3 5 3 2 3 3 5 10 14 18 22 24 22 22 21 21 19 15 15 15 14 14 14 14 14 14 14 13 12 12 13 13 13 14 14 14 16 15 15 15 13 13 13 13 12 11 11 12 12 12 12 13 14 13 13 12 12 12 12 11 10 11 13 15 17 21 22 21 19 17 17 16 16
4 2 1 2 2 1 3 3 3 3 5 6 7 10 7 6 6 7 7 4 4 5 5 3 3 8 7 5 2 3 5 14 19 19 21 23 22 21 20 19 18 17 16 15 15 14 14 14 14 14 13 12 12 12 13 14 13 14 14 14 16 16 16 15 14 13 13 13 12 12 12 12 12 12 12 12 13 13 12 12 12 12 12 11 10 10 13 14 15 18 19 19 18 17 15 14 14
3 3 3 3 3 0 3 3 4 4 5 5 6 10 10 7 6 8 6 5 5 3 4 4 7 9 8 4 0 1 10 15 18 19 20 21 21 21 19 18 18 18 17 15 15 15 15 14 14 13 12 12 12 12 13 14 15 14 14 15 16 18 17 16 14 13 13 13 12 12 12 13 13 12 12 12 12 12 12 11 11 12 11 11 11 10 11 13 13 15 16 17 17 16 15 13 12
2 2 4 3 2 2 3 3 5 6 7 5 6 8 5 6 6 7 9 9 6 3 4 3 6 7 7 1 1 5 11 12 16 19 19 20 20 20 19 18 18 18 17 15 16 16 16 15 14 13 12 11 10 11 12 14 15 14 15 15 16 18 17 16 14 13 13 12 12 12 12 13 13 12 12 11 11 11 11 11 11 11 11 11 10 10 10 12 12 13 13 14 15 16 15 13 12
2 2 4 2 3 3 2 3 5 5 6 4 5 5 5 7 8 12 12 10 8 5 4 3 9 5 5 2 0 3 7 10 16 20 20 20 20 19 18 18 17 17 15 15 16 16 16 16 15 13 12 11 9 9 10 13 14 14 15 15 16 18 17 15 14 14 13 12 12 12 12 13 13 12 12 11 10 10 10 10 10 11 11 10 10 9 9 11 12 12 12 12 13 14 15 13 12
3 2 4 1 1 2 2 3 3 2 5 5 5 6 3 6 9 12 12 11 5 4 2 5 10 8 4 3 1 3 5 12 18 19 20 20 19 19 18 17 17 16 15 14 15 15 16 15 14 13 12 11 10 10 10 12 13 14 14 15 17 17 17 16 14 14 12 12 12 11 11 12 12 12 12 11 10 10 10 10 10 10 10 10 9 8 8 10 12 13 12 11 11 13 15 14 12
4 1 4 1 2 1 2 3 1 1 4 5 6 8 3 1 6 12 13 12 4 3 6 4 4 6 5 7 5 7 10 17 19 19 20 20 19 18 16 16 17 17 15 15 14 14 15 14 13 13 12 11 11 11 11 12 13 13 14 15 17 16 16 15 14 14 13 13 12 11 11 11 12 12 12 12 11 10 10 10 10 10 10 9 9 9 8 9 11 13 13 11 10 12 13 13 12
3 3 4 2 1 2 2 3 0 1 5 6 7 7 4 5 5 8 5 7 7 5 5 2 2 2 8 7 7 13 17 21 21 22 22 21 19 18 17 17 17 17 16 15 14 13 13 14 13 12 11 11 11 11 12 12 12 12 13 15 16 16 15 15 15 14 13 13 12 11 11 11 11 11 12 12 12 11 10 10 10 10 9 9 8 8 9 9 10 11 13 14 11 11 12 13 11
2 4 3 1 2 3 3 3 1 1 5 8 8 6 3 3 5 3 2 6 10 7 5 2 3 2 8 6 13 21 23 24 24 24 23 22 20 19 18 18 19 18 17 16 14 13 12 13 13 12 11 11 11 10 11 12 12 12 12 14 14 14 15 15 15 15 14 13 12 11 11 11 11 11 12 12 12 11 10 10 9 10 9 9 8 8 9 9 10 10 12 14 13 11 11 13 11
3 3 3 1 3 5 4 5 4 1 5 9 8 5 2 6 4 2 6 8 6 8 6 4 6 7 10 14 22 25 24 26 25 24 22 20 19 17 17 18 19 19 18 17 15 14 13 13 12 12 12 11 11 10 11 12 12 12 12 12 12 13 15 15 15 16 15 14 12 12 11 11 11 12 12 12 12 11 10 10 10 10 10 9 8 8 9 9 10 11 11 14 15 12 11 12 11
3 3 2 3 5 5 4 5 5 2 4 9 8 4 1 6 6 2 6 5 5 9 5 5 10 10 12 16 22 22 24 24 22 22 19 16 16 17 16 17 19 18 18 18 16 15 13 13 12 12 12 12 11 11 12 12 12 12 12 11 10 12 14 15 16 16 16 15 13 12 12 11 11 12 12 12 12 11 10 10 10 11 10 8 8 8 9 10 10 12 13 13 14 13 11 12 12
1 3 2 5 6 5 5 7 8 5 4 8 6 3 2 3 3 3 7 7 5 8 6 7 10 11 13 12 16 20 22 20 21 21 17 14 15 17 18 18 19 19 18 17 17 15 14 13 12 12 13 13 13 12 12 12 12 12 12 11 11 12 12 13 15 16 15 15 13 12 12 11 11 11 12 12 11 11 11 11 11 11 10 8 8 8 9 10 11 14 14 14 14 14 13 11 11
1 3 4 7 4 4 7 8 9 5 2 5 3 6 2 3 2 5 11 9 1 5 9 12 15 16 16 12 13 17 17 16 17 19 17 14 14 16 19 19 19 19 18 17 17 17 15 13 13 13 12 13 13 13 12 12 12 12 12 12 12 13 12 12 13 14 14 14 13 13 13 12 12 12 12 11 11 11 11 12 12 12 10 9 8 8 10 11 12 14 14 14 14 14 13 11 10
1 3 6 7 2 4 9 6 7 4 2 1 3 5 2 1 2 6 11 10 6 8 9 13 20 20 19 16 13 13 13 12 13 15 16 15 15 16 18 18 18 18 18 18 18 17 16 14 13 13 12 12 13 13 12 12 12 12 12 13 13 13 13 13 12 13 14 14 14 13 13 13 13 12 12 11 11 11 12 12 13 12 11 9 9 9 10 12 13 14 14 14 13 13 12 10 8
2 4 5 7 4 5 8 5 4 2 2 1 3 2 1 4 4 4 3 5 5 6 9 13 18 20 21 19 15 13 12 11 11 14 17 18 18 19 20 19 19 19 20 19 19 18 17 15 13 12 12 12 12 12 13 13 13 12 12 13 13 13 13 13 13 13 13 14 13 13 14 14 14 13 12 11 12 12 12 12 13 12 11 9 9 9 10 12 13 13 14 13 11 11 10 8 7
4 5 6 7 5 8 9 6 5 3 1 2 2 4 3 5 7 2 3 6 3 6 8 9 12 15 17 15 13 13 12 12 12 15 18 20 21 21 21 20 21 21 20 19 19 19 17 15 13 12 11 11 10 11 12 13 13 13 14 13 13 13 13 14 13 13 13 13 13 13 14 14 14 13 12 12 12 13 13 14 14 13 11 9 9 9 10 11 12 12 13 12 11 11 9 8 6
4 6 6 5 5 8 10 8 9 5 4 3 5 5 2 7 6 2 4 7 2 8 9 9 10 11 12 12 13 12 11 11 12 14 16 19 21 20 19 20 21 21 20 19 18 18 17 15 14 13 12 11 10 10 11 12 13 14 14 14 13 13 13 13 12 12 12 12 13 13 13 13 13 13 13 13 13 14 15 16 15 13 12 10 10 10 10 11 11 11 11 12 12 11 10 8 7
6 7 6 5 6 8 8 9 9 6 5 1 5 4 1 5 4 1 5 4 3 9 10 11 12 12 11 10 11 11 11 11 12 15 17 18 20 19 19 20 21 21 21 19 18 17 16 15 14 12 11 11 10 10 10 11 12 13 14 14 13 13 13 12 11 11 11 12 12 13 14 13 13 13 14 14 15 16 16 17 16 15 15 13 12 11 11 11 11 11 11 12 12 11 10 8 7
5 5 6 8 10 8 5 7 9 5 3 1 6 4 2 1 2 2 3 1 6 10 10 10 12 12 11 10 9 10 11 12 16 18 16 15 18 19 19 20 22 22 21 20 18 17 16 15 14 12 12 11 11 11 11 11 11 12 12 13 12 11 11 11 11 11 11 11 12 13 14 14 14 14 15 15 15 16 17 18 18 18 18 16 15 13 12 11 11 12 12 12 12 11 9 7 7
5 4 6 8 7 5 2 3 7 3 1 2 7 4 2 4 1 6 4 5 8 12 11 10 11 10 10 11 9 8 8 12 17 18 16 16 20 23 22 22 23 22 20 20 18 16 15 14 14 14 14 12 12 12 11 10 9 9 9 10 10 10 10 10 10 11 11 11 12 13 14 14 15 16 16 16 15 16 17 18 19 20 19 18 17 15 13 12 12 12 12 12 11 11 11 11 10
6 3 3 7 5 2 4 2 3 1 2 3 6 4 5 3 4 4 5 7 8 12 13 11 11 9 8 9 7 6 7 11 15 16 19 22 24 26 25 23 23 21 19 18 17 15 14 13 14 15 15 14 13 13 12 11 10 8 8 7 7 8 9 11 11 10 11 11 11 12 13 13 14 15 15 15 14 14 15 17 19 20 19 18 18 17 15 14 13 12 12 12 11 11 12 13 13
5 2 2 3 6 2 4 1 2 2 2 3 5 2 6 7 7 2 5 7 8 10 11 11 9 7 7 7 6 6 7 10 12 17 23 24 26 27 26 24 22 21 20 18 17 15 14 13 14 15 15 15 14 14 13 13 12 10 9 8 7 5 5 7 9 10 9 9 9 9 8 7 9 10 12 12 12 12 13 14 17 19 20 19 18 17 16 16 15 13 13 12 12 12 13 14 15
4 3 2 2 2 3 6 4 0 3 2 0 6 1 7 8 8 4 5 7 10 10 11 11 9 7 7 6 6 6 6 8 13 20 24 26 28 28 28 26 23 22 21 19 17 16 15 14 14 15 15 15 15 14 14 13 11 9 7 7 8 7 6 5 6 7 6 5 6 7 7 6 6 6 8 11 11 11 11 13 14 15 17 19 20 18 17 17 17 16 15 14 13 13 13 14 15
3 2 3 4 1 3 8 4 4 4 3 3 7 2 6 7 7 6 6 7 10 11 10 10 9 8 7 6 6 6 5 7 12 19 23 27 30 30 29 28 25 24 23 21 19 17 16 15 16 16 15 16 17 16 14 13 11 9 7 8 8 7 6 5 6 6 5 4 3 5 7 9 9 5 5 7 9 10 12 13 10 9 12 17 20 20 19 18 18 17 17 16 15 14 13 13 14
4 2 1 3 2 3 5 3 2 2 2 2 2 3 4 5 6 7 8 9 10 11 11 10 9 8 8 7 6 6 6 6 9 15 21 27 30 31 31 29 27 25 23 22 21 19 18 18 17 17 17 17 17 16 15 13 11 9 9 9 8 6 4 5 7 7 6 6 5 6 4 5 9 7 5 6 6 6 8 8 6 9 12 12 14 19 21 21 19 18 18 17 16 14 12 12 12
4 3 2 3 1 1 3 4 4 1 2 4 2 4 5 6 3 6 9 10 11 10 11 11 10 9 7 7 6 7 8 8 9 15 23 27 29 32 32 30 28 25 24 23 21 20 19 19 19 19 19 18 17 17 16 14 12 11 11 10 7 5 5 5 7 8 6 6 5 5 5 2 4 4 3 4 4 4 5 4 4 9 10 10 12 16 19 19 19 20 19 17 16 15 13 12 11
2 1 2 3 2 1 2 4 4 4 2 5 3 5 8 8 5 1 5 8 10 11 11 10 10 9 8 8 8 8 9 11 12 18 25 27 28 31 31 30 28 26 25 23 21 20 19 20 21 20 20 19 18 17 17 17 14 12 12 10 8 7 7 7 9 8 7 6 5 5 3 2 2 2 1 1 2 2 3 4 6 9 7 9 13 14 14 14 15 17 17 14 14 14 12 13 11
4 3 4 1 1 3 4 5 5 3 2 2 4 6 5 6 8 4 1 5 10 10 7 7 6 6 7 8 8 9 11 12 13 18 24 25 28 29 29 29 28 26 26 24 22 21 19 21 22 21 20 19 19 19 20 18 15 13 12 11 10 10 9 9 9 9 7 6 4 3 2 1 2 2 1 1 3 3 4 4 2 7 7 6 10 9 7 9 12 13 12 10 14 16 14 14 11
3 3 4 1 1 3 5 5 6 1 3 3 5 4 3 4 8 7 3 2 7 9 8 7 7 7 8 9 9 11 11 8 9 16 21 22 23 25 27 28 28 27 26 25 24 22 20 22 23 23 22 21 21 21 21 20 17 14 13 12 12 11 10 9 9 8 6 5 3 2 2 2 3 3 2 1 2 2 4 4 3 1 2 3 4 3 2 4 8 7 6 6 10 14 14 14 12
3 3 2 3 0 3 5 4 6 3 4 3 4 1 3 5 6 7 5 1 5 9 10 10 11 10 9 10 11 10 6 4 7 12 17 17 18 22 25 28 30 29 28 27 25 24 22 23 24 25 24 23 22 21 21 20 18 15 14 13 13 12 10 7 7 6 5 5 3 2 2 1 2 2 2 1 1 2 3 3 4 4 5 6 5 7 8 4 3 4 2 2 5 6 9 11 11
3 2 2 2 2 3 6 5 6 4 3 3 3 2 4 7 6 7 6 3 4 7 11 11 11 10 9 10 9 7 6 6 8 10 14 17 18 20 24 26 29 29 30 29 26 25 25 25 25 26 26 25 23 20 19 19 18 15 13 12 12 11 9 6 6 5 5 5 5 3 2 1 2 2 1 2 2 3 3 4 4 5 6 7 7 9 10 9 10 12 8 2 3 3 4 6 7
3 3 3 2 3 0 3 5 6 4 2 1 1 3 5 6 5 6 5 4 4 3 9 10 10 11 12 11 9 9 11 10 11 11 12 14 16 19 23 25 26 27 29 30 29 29 29 28 27 28 28 25 23 20 17 17 18 16 13 12 12 10 9 8 7 6 6 5 5 4 2 2 4 4 2 2 4 4 4 5 5 6 6 5 5 7 9 11 12 12 10 6 6 7 5 4 5
2 3 5 3 3 3 4 4 5 5 5 2 4 5 5 5 4 6 5 4 5 3 2 5 8 11 11 10 9 10 11 12 13 14 12 11 16 20 23 24 25 27 30 32 31 32 31 30 29 30 28 26 23 20 17 17 19 18 16 14 12 11 10 10 9 7 6 6 5 4 2 1 3 4 4 3 4 4 5 5 5 5 5 4 3 5 7 8 10 11 11 8 8 8 7 6 8
4 3 6 7 5 4 3 3 5 4 4 3 3 2 5 5 4 6 5 5 5 5 4 6 7 7 8 9 10 10 10 10 11 14 14 14 17 19 20 23 25 28 31 32 33 33 32 31 31 30 29 27 24 21 19 19 20 20 19 17 15 13 13 12 10 8 7 6 5 3 2 2 3 3 4 4 3 3 3 3 2 2 3 3 2 3 4 6 6 8 9 9 10 9 8 7 9
2 5 7 7 5 4 3 1 4 2 3 4 2 3 4 5 4 6 5 6 8 7 6 8 8 5 8 10 10 11 11 11 10 11 13 15 16 17 19 25 29 30 30 31 33 34 34 32 32 31 30 28 25 23 21 21 21 21 19 18 17 16 15 13 10 8 6 5 5 4 3 4 5 4 3 3 3 3 2 2 1 1 0 2 1 1 2 5 6 6 7 8 9 10 10 10 9
3 5 6 7 5 5 5 5 4 2 3 4 4 4 2 4 5 6 5 6 9 9 8 9 9 8 8 10 11 12 14 13 12 12 14 15 16 19 23 29 31 30 29 31 34 35 35 33 32 32 31 29 26 24 23 23 23 23 20 17 16 15 14 12 10 9 8 7 6 5 5 5 4 4 5 4 3 2 2 1 0 0 1 2 2 2 2 3 4 5 5 6 7 9 10 10 9
6 5 6 5 4 5 5 6 4 1 1 3 5 2 1 4 6 6 5 4 7 8 9 10 10 10 8 9 12 13 14 15 14 15 16 15 18 24 29 31 30 29 30 33 35 35 35 34 33 32 30 29 27 25 25 25 25 24 21 18 17 15 13 12 12 11 10 9 7 7 7 6 5 4 4 4 5 5 4 4 4 4 5 5 5 4 4 3 4 4 5 5 7 8 9 8 8
4 5 5 3 4 4 4 5 3 2 2 4 6 1 2 4 6 4 3 3 6 7 8 9 10 11 8 8 10 11 12 12 14 16 16 19 25 29 28 27 27 29 30 32 33 34 35 35 34 33 31 30 28 26 27 27 27 25 22 19 17 17 15 14 14 14 13 11 9 9 7 6 6 5 3 3 4 4 5 5 5 5 5 6 5 6 6 6 6 6 7 7 8 8 8 8 7
3 5 4 5 5 4 3 2 3 2 1 6 7 5 4 2 5 4 3 4 3 4 7 9 10 10 9 6 7 10 11 12 13 14 16 20 21 20 21 23 25 26 27 29 31 33 36 36 36 34 32 31 29 28 28 29 29 26 23 20 19 18 18 17 16 16 15 14 12 10 8 7 6 5 4 3 2 2 2 2 2 3 5 6 7 8 8 8 8 8 9 9 9 9 9 8 8
4 4 4 2 3 4 4 4 3 1 4 6 6 4 5 2 5 5 5 5 3 3 6 9 11 11 11 7 2 6 8 11 14 14 14 12 10 14 19 21 22 24 27 29 32 34 36 37 37 35 33 32 31 30 30 31 29 27 24 21 20 20 20 20 19 19 18 16 14 12 10 8 7 6 5 4 3 2 1 1 2 3 5 7 8 9 9 9 10 10 10 10 10 10 10 9 9
5 4 5 3 1 3 2 3 1 3 5 5 4 2 2 4 6 5 6 7 7 5 6 7 7 9 11 10 4 3 1 4 8 11 11 9 9 12 18 21 23 26 30 33 34 35 35 36 36 37 36 35 34 32 32 32 30 28 25 23 22 21 21 21 21 20 19 17 15 13 12 11 9 8 7 6 4 3 2 3 4 5 5 7 8 9 10 12 11 10 10 10 11 11 11 11 10
3 4 4 4 2 2 2 3 2 3 5 4 3 2 2 3 3 5 6 7 6 5 4 2 5 10 11 11 8 5 4 3 3 5 5 8 10 13 18 23 25 29 33 35 34 33 32 33 36 37 37 37 36 34 33 33 31 29 27 25 24 23 23 22 22 22 21 19 16 15 13 12 11 10 8 6 5 4 4 5 6 5 6 7 8 10 11 11 11 10 10 11 11 11 11 11 11
3 3 5 4 4 3 4 3 3 4 4 4 3 2 2 1 1 6 7 5 4 4 2 5 9 9 10 12 12 10 6 2 4 4 5 6 10 16 21 24 27 30 33 34 33 33 32 33 35 37 37 37 36 36 35 34 33 31 29 27 26 25 24 23 23 23 22 20 18 16 15 13 12 11 9 7 6 6 7 7 7 7 7 7 9 10 10 10 10 10 10 10 10 10 10 10 11
2 2 5 2 4 5 2 2 4 3 1 2 2 2 3 2 3 6 5 2 4 6 7 11 11 10 12 13 11 10 9 6 2 4 6 4 6 11 17 23 28 31 32 31 32 32 33 34 35 37 37 37 38 38 37 36 35 33 31 29 28 26 25 24 24 24 23 22 20 18 16 15 14 12 9 9 9 9 8 8 8 7 7 8 10 10 9 10 11 11 11 10 9 8 9 9 10
1 1 2 4 3 6 3 1 0 3 1 3 1 2 4 1 1 6 4 4 7 8 10 11 9 11 14 11 9 9 9 8 6 2 4 4 4 8 12 14 17 20 25 30 34 37 37 35 34 35 35 36 37 38 38 37 36 35 34 32 29 28 27 26 26 26 25 24 22 19 18 17 15 13 11 11 11 10 10 9 8 8 9 10 10 9 9 10 12 12 12 12 10 9 9 9 10
4 1 4 3 1 3 3 0 3 4 0 4 1 2 4 1 1 6 6 7 7 7 7 9 9 11 12 9 8 9 8 8 8 6 4 1 5 9 10 11 11 12 16 22 28 32 33 33 34 35 36 36 38 39 38 38 38 37 35 33 31 29 28 28 28 27 26 25 24 21 20 19 17 14 14 13 12 11 11 10 9 10 11 11 11 9 10 11 12 12 12 12 12 11 11 11 11
5 3 2 1 1 1 1 1 0 0 1 3 3 2 3 3 4 3 0 3 3 5 7 9 9 9 8 7 7 8 9 8 8 8 7 5 0 7 11 11 10 12 15 18 20 21 23 27 30 33 36 37 38 38 38 38 38 38 37 35 33 30 29 29 29 29 27 26 26 24 22 21 18 17 16 15 14 13 12 11 11 10 11 11 10 10 11 12 13 13 13 12 13 13 13 13 12
2 2 3 2 3 3 0 1 2 2 3 2 3 3 2 5 6 6 6 6 4 4 6 7 6 5 5 5 6 7 7 7 7 8 8 8 8 5 9 15 14 14 16 18 19 20 22 24 25 28 31 32 33 35 36 37 38 38 38 36 34 31 30 31 31 30 29 28 27 25 23 22 21 19 19 18 17 15 14 12 10 10 10 9 9 10 11 13 13 13 13 13 14 14 14 14 15
2 3 3 3 1 1 0 0 2 3 3 2 2 3 4 5 4 7 8 6 5 5 6 5 5 5 4 3 4 5 6 7 7 8 8 8 11 14 6 11 15 15 16 18 19 21 23 23 25 27 28 28 31 34 35 37 38 38 38 37 36 33 32 32 32 31 30 29 27 26 25 24 23 22 21 20 18 16 14 11 9 9 9 8 9 11 12 13 13 13 13 14 14 14 15 16 16
4 2 1 1 1 0 1 2 2 1 2 3 4 2 5 5 2 3 6 6 5 5 5 4 3 4 4 3 2 3 5 6 6 6 8 8 10 16 14 3 7 11 15 17 19 21 23 26 30 30 29 30 32 34 36 37 37 38 38 38 37 35 34 34 33 32 31 29 28 27 25 25 24 23 22 21 19 16 12 10 9 8 7 8 10 11 11 12 12 12 12 12 13 14 15 16 17
Wind_Direction
316 316 307 297 310 319 342 66 67 321 84 105 270 250 259 232 208 294 298 349 41 331 327 63 75 82 105 115 144 124 69 133 166 155 192 239 150 157 165 165 173 171 170 167 164 160 154 151 152 154 152 151 150 147 144 144 145 147 146 145 141 136 130 128 130 127 124 126 128 128 127 127 124 123 123 124 123 123 122 121 120 119 119 119 119 118 111 107 117 123 122 123 125 125 124 122 123
323 318 303 303 327 346 270 78 93 319 41 359 279 186 257 280 190 222 225 120 97 84 73 80 76 74 91 107 134 106 48 7 193 153 107 133 139 153 163 163 169 169 170 166 162 160 154 149 149 151 150 150 150 148 147 145 145 147 148 148 145 140 134 131 132 130 126 127 130 130 130 127 124 125 125 125 125 125 125 125 123 121 119 121 121 121 113 108 117 122 122 123 124 125 124 123 123
330 320 317 316 347 45 56 42 96 18 66 266 275 229 268 290 243 230 188 133 125 120 97 89 76 60 59 73 24 61 80 316 56 96 106 131 134 154 165 166 168 170 171 163 160 158 151 146 146 149 148 148 149 149 148 147 147 147 151 151 149 146 140 135 134 132 128 128 131 131 131 128 126 126 128 129 129 128 126 124 122 120 119 120 121 122 116 111 118 122 124 122 124 126 125 125 123
336 331 341 20 41 31 58 50 144 123 132 220 305 294 294 330 316 29 144 130 131 119 95 82 53 348 37 87 41 39 117 298 78 110 121 135 141 158 168 172 171 171 168 160 156 154 148 144 143 145 146 147 148 150 151 149 150 150 156 157 154 151 145 140 137 136 131 130 133 134 134 133 132 128 131 135 135 133 128 125 122 120 118 118 119 123 118 114 120 123 126 124 125 128 126 127 126
341 344 355 72 90 15 95 86 130 119 192 190 104 288 35 80 73 75 111 123 136 114 110 121 91 313 47 83 150 99 115 114 87 107 106 124 149 158 168 171 171 170 163 156 153 152 147 144 143 145 143 145 149 151 154 152 152 154 159 160 158 156 151 146 142 143 138 135 135 137 139 137 135 131 133 136 138 138 133 130 126 121 120 119 116 122 120 116 123 125 128 127 125 129 130 130 131
344 19 46 60 95 182 117 133 188 177 230 175 184 237 87 60 94 99 91 76 52 83 167 148 131 145 85 30 77 77 312 150 117 120 125 136 152 159 163 166 169 165 156 151 151 152 148 146 144 145 142 144 149 152 156 156 157 157 159 161 162 161 157 152 148 149 145 140 138 138 142 141 138 134 134 135 139 140 138 135 127 124 122 120 115 119 122 119 126 130 133 133 127 130 135 137 138
357 36 33 52 31 34 108 190 205 225 246 182 214 232 95 39 89 86 67 82 44 25 204 147 135 124 105 186 95 356 354 145 144 149 148 144 152 155 159 165 164 156 149 151 153 153 148 147 146 143 142 143 148 152 156 159 163 159 160 163 163 164 161 158 155 154 150 145 143 139 141 144 143 139 139 138 141 143 141 136 129 128 123 120 115 118 124 121 128 134 137 140 137 136 140 141 142
19 57 27 92 42 9 107 239 236 210 249 215 244 260 113 130 142 111 286 271 139 156 125 154 151 103 74 320 104 334 35 124 150 150 151 148 153 154 161 166 159 148 148 153 152 152 147 148 147 141 139 141 146 152 157 162 168 165 163 166 163 166 165 162 159 156 152 149 146 143 143 147 149 146 145 141 142 145 143 139 134 134 128 124 119 119 127 124 127 137 139 142 145 143 142 142 144
32 53 49 95 120 356 24 306 276 230 256 256 265 274 237 178 186 191 237 288 212 159 148 184 208 105 132 69 91 314 57 120 139 144 150 150 155 155 162 166 160 148 147 155 154 150 146 148 145 138 137 139 145 150 160 164 170 169 167 171 166 166 167 164 162 158 155 153 150 148 149 151 154 151 149 147 145 145 143 140 136 134 130 128 125 121 130 129 127 138 143 143 148 148 147 147 146
31 27 108 88 104 354 323 292 264 258 250 249 257 263 255 204 191 209 207 240 215 156 147 151 80 117 131 108 103 298 117 131 131 137 149 153 155 155 160 164 162 154 151 156 155 149 143 144 141 137 139 141 147 152 160 165 170 171 167 173 170 166 167 165 164 162 159 157 153 152 155 156 159 156 154 152 149 147 144 142 139 135 132 129 130 127 131 135 131 138 147 148 154 158 155 156 153
35 344 97 80 66 126 277 258 264 268 263 277 267 255 251 215 178 214 186 163 222 166 140 100 91 120 111 102 274 139 140 137 133 138 150 154 155 156 157 158 163 163 159 155 153 149 142 142 140 140 145 147 152 153 159 162 168 172 167 171 173 169 169 168 164 165 162 159 158 156 159 159 161 160 160 158 154 151 148 148 143 137 134 131 133 134 133 140 141 141 149 151 159 168 166 166 161
72 329 69 93 131 192 219 230 271 280 284 292 268 260 228 196 175 189 165 159 196 178 188 140 136 136 92 67 278 137 143 141 141 143 150 154 154 158 159 158 166 167 163 157 152 149 144 143 142 144 150 152 151 150 156 159 164 169 167 169 173 172 171 169 165 167 166 163 163 159 160 161 161 163 166 166 160 158 157 154 147 139 136 134 135 138 134 138 148 149 152 151 158 171 171 168 162
119 166 87 121 191 185 218 244 279 307 301 268 250 269 152 170 185 176 163 158 161 167 237 154 149 136 84 119 144 153 157 149 146 148 153 154 155 160 161 162 168 167 162 160 154 149 146 145 147 149 151 152 149 145 152 156 160 164 165 167 172 173 171 169 167 169 169 166 163 160 161 162 163 167 170 172 168 165 163 158 149 144 140 136 137 139 136 136 149 154 158 155 152 168 173 166 159
154 163 115 178 242 166 227 259 294 338 292 269 277 294 178 189 192 169 146 138 156 179 151 125 135 103 92 142 139 211 177 155 150 154 157 154 156 159 159 160 166 168 164 162 157 149 147 147 152 155 154 153 149 143 145 150 155 159 162 166 172 173 170 170 169 170 171 166 163 161 164 164 165 169 173 176 176 172 169 165 157 153 147 141 141 142 142 141 151 157 163 163 152 163 172 165 159
177 147 99 118 316 320 237 218 262 249 273 289 309 322 339 262 162 149 142 137 168 179 110 117 128 88 158 174 176 204 172 156 152 153 154 152 154 154 157 158 161 167 165 164 159 152 148 149 153 157 157 155 150 145 144 146 149 154 157 164 172 172 171 172 170 173 172 166 166 164 166 166 166 171 175 178 180 179 174 170 165 161 154 147 147 147 150 149 155 162 167 170 158 162 170 166 162
162 103 73 61 273 280 234 207 303 265 260 278 298 327 15 15 82 134 164 129 134 146 99 146 258 113 172 179 165 169 158 152 149 149 147 146 149 148 152 153 156 161 162 164 162 158 153 152 155 157 158 156 153 147 145 145 146 152 157 164 172 173 174 175 172 176 175 169 168 167 168 167 168 175 178 179 181 183 179 174 172 170 164 156 152 153 157 156 161 167 170 174 166 163 169 170 169
87 86 74 29 239 230 215 203 230 241 273 290 314 345 78 57 47 96 40 71 125 130 64 54 326 77 147 148 145 149 148 148 146 144 139 140 144 142 145 147 151 155 160 166 165 165 163 159 160 161 160 159 158 152 150 147 148 156 163 168 173 177 180 179 176 177 177 174 171 170 171 170 174 181 182 182 185 185 181 177 177 178 174 165 159 161 165 164 166 169 172 177 175 167 169 176 178
83 96 110 178 232 226 192 194 222 250 302 300 312 329 155 134 101 97 68 56 92 87 52 61 40 59 107 122 136 141 144 145 142 139 135 137 140 136 141 147 151 155 161 166 167 170 170 168 166 166 166 165 163 159 157 156 157 162 167 171 176 184 184 182 183 178 176 177 177 176 175 176 181 186 188 187 188 187 183 182 183 183 179 171 167 169 175 175 173 171 172 178 180 175 169 178 182
125 125 124 211 221 222 200 210 250 251 280 296 301 316 234 148 131 119 106 102 100 90 63 70 78 85 105 121 132 139 143 144 143 139 136 140 142 138 139 147 152 158 164 166 169 172 173 171 170 171 170 170 172 168 164 163 165 166 166 168 174 183 184 184 185 181 178 178 181 183 182 184 187 191 193 192 190 186 184 186 186 185 178 173 176 178 181 184 179 173 172 176 183 184 174 175 181
178 134 169 241 222 238 246 231 250 230 245 304 312 40 40 201 131 96 120 117 111 125 135 115 116 129 131 135 137 142 145 146 147 142 139 144 143 141 142 147 154 160 166 168 169 171 173 171 172 176 175 176 177 176 171 167 168 169 166 165 167 172 181 185 182 181 181 180 185 191 189 189 191 195 197 194 193 188 186 187 184 186 180 171 179 186 184 184 181 176 176 180 186 189 183 180 181
221 152 190 240 211 244 260 240 255 245 202 297 329 73 67 286 27 122 131 113 101 194 182 154 149 151 147 153 151 149 148 148 150 144 143 145 142 145 147 150 153 156 159 163 166 169 171 170 171 173 176 179 182 182 177 172 170 173 171 166 165 167 174 180 179 182 182 184 189 195 194 193 193 196 199 195 195 194 192 190 184 185 182 175 179 186 184 182 182 180 181 187 191 193 191 188 184
214 225 204 234 219 251 268 254 266 268 197 264 55 88 145 325 66 149 145 144 194 205 196 163 153 156 157 158 156 153 150 151 155 150 147 145 144 145 144 145 149 154 156 158 164 167 168 168 168 167 170 177 186 188 183 182 179 181 181 173 170 171 174 175 178 184 186 188 192 197 196 196 198 199 202 199 200 200 197 196 190 188 184 180 181 183 183 183 184 183 186 193 196 198 197 193 182
220 272 232 240 222 232 270 272 285 336 122 159 107 134 66 98 149 188 171 201 213 170 173 166 158 159 155 152 153 156 157 158 161 159 153 149 148 145 140 138 140 151 156 157 161 165 167 168 167 165 167 176 187 190 188 190 189 187 186 182 181 178 179 179 181 186 189 192 194 199 200 201 203 203 204 204 206 207 204 204 199 194 189 184 184 183 181 182 184 185 191 200 201 198 198 196 181
196 265 269 258 222 227 263 271 292 343 169 254 115 104 67 133 166 179 298 275 243 136 144 151 149 146 143 145 152 157 158 159 163 162 158 153 150 145 140 136 136 143 148 152 160 164 167 168 168 167 168 175 182 185 189 192 191 190 189 188 189 187 186 186 188 190 191 194 197 202 204 205 205 203 207 211 214 213 212 213 205 198 196 192 188 186 182 179 181 188 195 201 200 198 199 201 196
209 237 264 267 239 242 262 265 270 264 237 275 75 81 145 165 149 93 299 289 197 131 118 121 125 128 137 148 155 156 157 155 155 156 158 156 150 143 138 135 135 137 138 147 158 163 167 167 168 170 170 173 173 177 189 193 191 194 194 190 191 193 192 190 191 194 194 196 200 204 205 208 210 210 214 218 220 219 218 217 209 201 197 199 197 191 186 178 177 186 197 201 201 204 206 210 217
219 223 252 266 261 252 257 259 254 235 234 230 91 58 250 166 114 28 299 305 139 116 111 127 132 138 147 157 161 159 158 154 155 158 159 156 149 141 134 134 133 132 133 139 151 159 164 164 166 169 168 168 167 172 184 191 193 198 199 194 191 194 196 196 196 199 202 201 201 206 208 211 215 218 220 222 221 224 226 222 216 209 201 200 202 199 193 185 180 183 193 201 204 209 211 215 227
225 233 263 265 257 251 249 254 246 217 228 181 122 132 254 290 68 255 285 86 129 114 119 141 141 149 157 163 169 164 163 163 162 156 148 146 147 142 137 138 135 133 133 133 139 148 155 160 162 160 159 161 163 167 176 184 193 201 208 206 199 196 198 203 203 205 209 207 205 207 211 214 219 223 225 226 224 225 226 221 215 210 207 205 204 204 201 195 190 192 198 206 212 218 223 232 245
269 276 290 290 268 245 217 228 244 211 194 137 117 129 300 348 332 217 197 144 144 132 138 155 152 156 161 166 173 170 167 164 160 151 145 154 156 150 146 146 142 139 140 136 134 140 147 154 156 154 154 155 154 155 161 167 178 190 201 209 212 210 209 213 212 213 215 212 210 210 213 217 222 227 228 228 228 224 220 218 215 211 210 210 206 205 209 208 202 202 207 216 227 232 240 249 258
294 295 280 312 352 253 220 208 248 187 199 186 117 40 333 306 265 234 157 146 153 144 150 162 160 160 163 171 171 167 159 154 158 156 160 165 161 156 152 152 152 149 147 143 141 142 145 151 155 156 154 154 151 146 144 144 146 149 152 168 197 212 217 222 218 215 215 208 204 205 209 215 221 226 229 229 226 221 217 216 218 216 214 213 210 207 209 214 213 213 216 223 236 243 247 251 259
313 341 141 319 12 331 254 347 350 122 209 200 127 359 291 268 275 261 146 148 147 149 162 167 163 163 166 173 166 162 159 156 165 167 167 166 162 160 156 156 160 157 154 153 152 148 146 151 157 159 157 157 152 147 144 141 139 139 138 141 149 165 187 211 213 209 210 203 198 198 195 208 220 223 227 227 223 220 216 213 216 218 216 214 215 213 213 219 219 219 222 228 238 246 252 254 260
327 330 53 16 39 280 299 332 156 161 250 131 109 181 258 267 279 245 173 156 152 164 177 171 167 170 168 172 167 165 167 168 173 171 171 167 163 164 161 159 163 164 161 160 159 153 148 151 157 159 161 162 158 153 149 147 149 152 157 152 142 140 137 156 188 194 199 199 203 201 198 214 220 222 229 231 231 226 218 216 215 217 219 217 218 217 217 223 224 224 228 233 240 244 251 256 260
4 342 328 350 87 273 303 306 195 195 291 43 101 174 269 267 258 226 181 163 166 174 182 179 177 174 167 171 169 161 165 175 179 177 173 169 166 167 165 164 168 170 167 164 162 157 153 153 158 158 157 162 161 156 153 154 159 165 173 165 149 143 136 135 146 149 155 157 156 177 203 226 229 237 254 245 243 237 231 228 216 210 221 224 225 223 222 226 228 229 230 233 240 246 252 257 260
358 63 270 302 10 320 311 320 256 221 293 347 114 188 266 274 234 200 184 178 178 180 185 188 186 179 171 172 170 159 164 176 188 189 180 173 171 171 170 171 173 174 172 169 165 162 160 160 165 165 159 160 158 156 157 156 157 163 166 160 156 154 148 149 148 136 129 131 121 124 156 227 232 237 262 257 257 262 256 248 219 208 217 224 228 227 228 233 233 234 236 234 239 250 258 262 265
320 24 49 278 312 321 311 315 309 31 187 247 245 202 238 278 252 178 195 191 180 188 193 192 190 184 175 169 170 168 174 183 192 195 187 179 175 174 174 175 176 176 175 173 172 171 169 169 172 169 163 160 158 158 157 148 140 145 151 155 159 158 151 154 155 147 136 132 120 115 113 122 205 215 246 262 275 293 305 319 263 234 228 229 231 229 229 233 235 238 243 243 244 252 258 264 269
263 308 44 319 326 292 289 280 300 0 294 232 208 231 249 276 303 175 199 196 189 201 201 200 197 184 177 173 177 179 182 192 197 193 188 182 179 177 176 176 176 176 175 174 174 174 173 173 172 168 164 161 159 159 156 148 139 138 142 148 147 138 138 146 154 154 147 142 128 123 125 125 169 155 113 51 13 319 337 348 277 261 254 237 235 239 237 238 243 242 244 250 250 253 258 260 263
195 194 150 159 342 294 275 257 275 350 350 279 212 234 263 278 296 319 247 194 198 208 207 211 209 187 185 184 183 185 191 201 199 191 188 186 184 180 177 176 175 175 176 174 172 173 172 173 173 170 165 162 158 156 154 152 147 144 143 144 139 131 134 143 154 157 152 151 149 148 163 211 214 199 155 87 56 62 59 56 266 259 267 262 249 254 252 240 245 240 241 260 255 249 255 254 255
159 119 124 132 85 296 285 272 296 22 109 309 249 234 308 289 280 287 281 186 176 191 200 206 206 197 194 195 195 194 197 198 189 191 194 192 187 181 177 175 174 174 175 175 172 172 173 174 176 172 167 164 158 155 154 153 152 154 152 148 140 135 141 149 155 160 159 160 168 198 227 230 215 207 184 148 108 90 81 83 75 304 304 330 286 296 357 239 243 239 239 268 258 249 254 251 252
105 117 98 357 67 264 275 260 307 349 113 304 286 198 288 274 269 281 300 17 152 176 190 200 203 203 201 201 201 194 185 160 169 195 201 196 189 183 179 176 175 176 175 177 176 173 173 175 177 174 169 167 162 160 161 159 160 162 160 156 148 142 146 157 161 161 164 168 177 216 238 219 204 200 179 143 134 114 99 97 81 64 63 62 55 51 54 55 32 41 41 276 260 256 256 249 248
81 102 85 340 264 283 300 290 314 360 95 293 320 50 281 275 274 279 290 267 213 183 183 199 203 203 210 210 202 178 164 167 179 198 204 199 190 184 182 180 181 180 177 178 178 174 172 173 175 173 171 169 167 169 171 168 168 168 165 161 156 149 149 163 167 153 149 157 163 176 192 214 222 212 148 94 102 108 101 98 97 89 75 65 58 57 58 54 53 57 60 32 320 328 284 264 260
87 114 117 280 265 278 290 296 320 348 44 238 49 32 305 299 311 289 282 264 269 206 183 197 200 203 210 208 200 184 177 181 187 199 205 196 187 186 188 186 185 182 178 179 178 174 173 173 174 173 173 174 172 176 181 178 174 172 170 166 160 156 155 166 171 156 150 154 158 171 197 249 249 232 194 121 110 107 108 109 109 107 89 70 52 51 53 48 49 56 59 45 11 6 350 339 337
291 168 154 204 238 211 219 277 326 341 357 44 72 23 320 324 339 298 306 337 314 318 191 209 210 210 212 203 199 196 190 188 189 194 199 195 192 191 190 189 188 185 183 182 180 176 175 176 176 175 176 177 178 181 186 183 176 173 170 167 164 159 159 171 180 178 173 170 173 185 205 280 262 216 184 150 135 120 118 122 116 107 94 78 47 40 48 47 43 46 50 42 26 16 2 358 3
305 244 194 197 207 210 232 327 18 25 344 338 49 17 290 319 325 272 298 343 311 322 330 266 240 211 202 205 202 194 196 198 196 195 195 199 198 189 187 190 191 190 188 184 182 179 178 179 179 179 180 181 182 185 188 185 179 175 171 169 170 167 169 177 184 185 181 178 180 186 169 102 92 144 166 162 159 149 142 143 131 100 83 73 44 22 35 41 37 38 41 38 34 31 25 22 11
313 246 203 184 158 143 162 123 82 102 258 295 50 149 249 317 314 267 303 334 301 305 306 278 272 235 197 205 204 190 191 196 199 202 201 205 197 181 185 195 196 195 191 185 183 183 182 182 182 183 184 183 183 187 192 190 183 181 181 181 183 183 184 184 185 186 185 185 185 185 171 132 104 100 128 154 178 192 201 212 228 252 37 76 67 358 15 33 36 36 34 32 32 31 35 41 28
235 235 167 148 144 158 166 146 142 195 235 315 15 111 190 299 280 277 330 337 302 302 295 280 277 261 221 209 206 194 190 189 190 199 205 208 197 186 191 197 198 196 190 186 186 186 186 184 184 186 187 186 187 190 196 195 189 188 189 191 193 196 197 189 185 190 192 196 196 191 180 155 131 112 102 101 125 158 187 203 174 89 84 83 78 68 32 18 21 25 23 21 20 22 29 38 36
242 211 149 149 162 165 144 131 156 256 76 305 321 55 161 273 277 304 353 322 286 286 284 282 280 273 249 216 210 199 191 188 188 194 203 206 198 196 198 197 196 194 191 190 188 188 188 187 188 190 192 191 190 194 198 197 195 194 193 196 199 202 203 195 190 198 201 201 201 197 187 167 155 144 120 103 104 112 114 99 81 74 72 71 71 70 60 38 22 18 16 12 10 16 21 24 27
233 158 118 65 65 93 96 116 141 53 71 240 266 218 170 271 286 310 347 273 263 271 275 277 278 280 270 230 211 199 189 188 193 196 200 206 203 200 198 194 193 193 193 191 189 190 190 190 192 195 196 196 194 196 198 197 197 197 197 200 203 203 201 198 198 203 206 208 207 202 196 181 169 163 151 134 123 117 110 96 81 70 56 49 49 47 43 34 26 19 13 7 3 6 6 4 10
144 103 74 32 26 42 48 75 105 79 281 248 244 204 162 258 283 260 233 229 240 279 289 291 297 308 308 271 210 192 187 185 193 201 205 206 201 194 190 190 191 192 192 192 191 192 193 194 195 197 199 199 198 198 199 199 199 200 202 204 206 205 202 202 203 203 206 210 211 207 205 201 192 181 177 174 167 149 128 105 73 49 28 17 13 15 16 13 8 0 355 352 349 353 354 351 350
92 85 71 51 335 10 21 358 42 140 257 261 245 193 143 191 261 250 252 271 268 254 273 293 312 333 339 328 226 181 196 195 190 196 204 196 173 171 182 188 189 189 192 195 194 195 195 196 197 198 200 201 201 201 201 202 202 203 206 206 206 205 205 208 208 208 210 212 212 212 213 215 214 208 203 204 209 216 216 287 327 344 354 359 358 359 359 355 352 349 348 350 351 353 352 352 351
81 95 81 87 316 2 339 301 322 211 252 255 216 154 146 220 249 260 272 285 281 261 261 283 325 3 6 356 7 106 137 223 211 203 194 177 166 175 180 182 186 190 196 198 198 197 197 197 197 199 202 203 204 203 204 207 207 206 206 206 205 205 208 213 214 215 217 218 216 215 218 223 224 224 224 221 220 236 254 278 300 313 327 339 345 346 344 343 348 355 358 359 360 360 358 358 359
136 144 121 132 132 63 268 270 282 255 269 269 219 196 259 269 285 281 275 286 304 319 300 305 35 38 32 21 23 52 88 147 221 248 212 183 182 183 181 185 189 194 199 200 199 199 198 198 199 200 203 205 205 205 206 209 211 210 208 207 206 205 209 214 219 222 223 223 223 222 225 230 231 233 238 235 231 241 255 267 278 288 304 321 332 334 333 339 348 353 354 355 357 358 359 359 357
200 171 131 142 156 162 225 228 213 250 273 292 288 232 196 154 278 276 271 292 355 33 17 47 51 44 46 40 32 30 30 93 159 202 226 217 201 189 186 189 193 198 201 201 200 199 199 199 200 202 203 205 206 206 207 210 213 213 211 210 208 208 211 215 220 225 226 227 228 228 230 233 236 239 240 241 240 247 257 260 261 268 287 306 319 322 326 339 344 343 341 342 344 345 348 351 352
254 157 107 150 185 161 186 198 180 194 243 292 287 232 216 176 251 281 274 304 33 59 54 48 42 39 48 40 28 34 27 16 59 165 193 230 240 215 200 195 198 201 201 201 201 201 202 201 201 202 204 205 206 207 208 211 214 215 214 212 210 211 214 216 219 223 228 229 230 231 232 234 239 239 236 236 240 246 252 252 255 268 286 303 311 315 326 338 338 336 334 332 335 335 336 341 343
232 102 160 236 194 131 124 276 345 81 113 274 263 241 290 346 313 312 343 41 27 34 53 54 42 41 50 41 19 26 32 27 28 67 171 190 225 238 232 221 215 210 205 203 203 204 205 203 202 203 204 205 207 208 209 211 213 215 215 214 212 213 215 217 219 222 226 229 230 232 233 233 235 237 235 234 237 241 244 250 263 278 292 304 310 317 329 334 333 333 332 330 332 329 327 331 333
115 152 231 249 19 90 114 152 1 44 202 275 278 206 272 337 211 309 358 47 27 16 47 57 46 44 47 39 23 21 25 30 30 35 50 159 197 212 228 241 245 235 224 218 214 212 209 206 204 203 204 206 208 209 210 212 213 214 216 215 215 216 218 219 221 224 227 228 228 230 230 230 231 233 234 233 234 237 242 252 269 283 295 303 310 317 325 326 327 329 330 328 327 324 323 324 325
118 163 204 90 94 284 12 105 192 313 224 281 307 256 243 213 207 248 313 99 60 24 44 55 50 50 47 33 22 19 22 23 18 25 30 25 313 213 213 223 238 235 231 230 229 228 222 215 211 208 207 209 210 210 211 212 214 215 217 217 217 218 221 222 223 225 226 226 228 228 227 227 228 229 231 231 233 236 243 255 269 283 295 301 306 313 317 319 322 324 324 324 322 318 316 317 320
39 70 27 44 139 170 175 133 174 202 210 247 301 312 265 235 208 174 175 181 149 87 65 73 75 70 63 47 32 21 23 21 12 14 16 19 15 335 224 212 221 228 229 229 228 228 227 224 221 217 214 213 212 212 212 213 215 216 218 218 218 220 223 225 226 226 226 226 226 226 225 224 224 225 226 228 231 237 244 254 268 282 291 296 302 307 309 312 316 318 318 317 316 314 312 314 319
24 18 349 344 19 95 296 253 134 148 179 194 227 278 268 256 213 155 162 185 171 132 107 112 115 110 105 71 45 35 32 26 17 14 12 12 13 6 334 222 215 217 221 227 227 224 223 224 225 224 221 217 216 215 215 216 217 217 218 218 218 220 223 226 226 226 226 225 224 224 224 222 221 221 222 222 226 233 239 248 264 278 286 292 296 299 302 306 310 312 314 315 314 313 313 315 319
147 184 245 271 242 341 305 287 310 115 169 178 166 234 267 266 260 164 161 174 189 162 127 120 102 95 98 87 78 65 51 42 34 29 23 18 16 17 15 332 229 218 216 220 221 221 222 223 225 224 222 220 219 218 217 218 218 217 219 219 219 221 223 225 226 225 224 223 223 222 221 219 217 218 218 218 222 225 228 238 255 266 274 283 288 291 294 299 302 306 311 314 316 316 315 317 317
Height
772 772 772 772 771 770 771 772 782 787 789 800 798 793 779 768 769 765 764 760 761 762 755 754 754 755 760 766 768 768 769 773 778 787 787 772 767 771 773 775 777 779 781 782 784 786 787 788 789 790 791 792 793 794 795 796 797 798 799 800 801 802 803 804 804 806 806 807 808 808 809 810 810 811 812 812 813 813 814 814 814 814 814 814 814 814 814 814 815 815 815 816 817 817 818 817 818
772 772 771 771 770 770 775 775 788 795 794 800 795 789 776 767 770 766 764 762 764 761 755 756 757 760 761 762 763 765 770 772 771 772 772 767 769 772 774 776 777 779 781 783 784 786 787 788 789 790 791 792 794 795 796 797 798 798 800 801 802 803 804 805 806 807 808 808 809 810 810 811 811 812 813 813 814 814 815 815 815 814 815 815 815 815 815 815 815 815 816 817 818 818 819 818 819
772 772 771 771 770 771 777 778 790 800 798 797 788 782 774 769 768 762 761 760 761 758 756 758 760 764 764 766 766 769 774 772 769 769 769 768 770 773 775 777 778 781 781 783 785 786 787 788 789 790 791 793 794 795 796 797 798 799 800 801 803 804 805 805 806 808 809 810 810 811 811 812 812 813 814 814 815 815 815 816 816 816 816 816 816 816 816 816 816 816 817 818 819 819 820 820 820
772 771 770 770 773 774 780 784 792 798 797 799 789 776 771 770 766 762 760 757 756 755 757 761 765 766 765 772 771 773 776 772 770 768 769 770 770 773 775 778 780 781 783 784 785 786 787 788 790 791 792 793 794 795 796 797 798 800 801 802 803 804 805 806 807 808 809 810 811 812 812 813 813 814 815 815 815 816 816 817 817 817 817 817 817 817 817 817 817 817 818 819 820 820 821 821 821
771 771 771 770 776 778 782 790 796 797 792 793 786 774 769 767 766 765 763 759 756 757 760 763 770 769 767 772 772 775 776 772 770 767 769 771 771 774 776 778 780 782 784 785 786 787 788 789 790 791 792 794 795 796 797 798 799 800 801 802 803 804 806 807 808 809 810 811 811 812 813 813 814 815 815 816 816 816 817 817 817 818 818 818 818 818 818 818 818 818 819 820 821 822 822 822 822
771 771 771 770 776 777 785 793 797 797 786 784 780 770 769 764 765 766 763 761 758 759 761 763 767 769 773 773 770 773 773 771 770 769 769 771 772 774 777 779 781 783 784 785 786 787 788 790 790 792 793 794 795 796 797 798 799 800 802 803 804 805 806 807 808 809 810 811 812 813 813 814 815 815 816 816 817 817 817 817 818 818 819 819 819 820 819 819 818 819 820 821 822 822 823 823 823
771 772 773 774 778 779 791 796 795 796 784 780 775 767 770 765 764 767 765 765 763 762 762 763 761 766 777 774 771 771 768 769 768 769 770 770 773 774 777 779 781 784 784 785 787 788 789 790 791 792 793 794 795 796 798 798 800 801 802 803 804 806 806 807 808 809 810 811 812 813 814 815 815 816 816 816 817 818 818 818 819 819 820 820 820 821 821 820 819 820 820 821 822 823 824 824 824
770 773 776 779 785 787 795 797 795 794 782 776 771 766 769 765 763 767 768 768 768 766 764 764 759 767 779 774 775 774 768 769 768 769 770 771 773 775 778 779 781 784 785 786 787 789 789 790 791 792 793 795 796 796 798 799 800 801 802 803 805 806 807 808 809 810 811 812 813 814 815 815 816 816 817 817 817 818 819 819 820 820 820 821 821 821 822 822 821 821 821 822 823 824 825 825 826
770 774 778 782 789 793 796 797 794 789 780 774 769 764 766 765 763 765 767 768 767 765 764 763 759 768 779 776 778 774 769 771 769 770 771 772 774 776 778 779 782 783 785 787 788 789 789 791 792 793 794 795 796 797 798 799 800 801 803 803 805 806 807 808 809 810 811 812 813 814 815 816 816 817 817 818 818 818 819 820 820 821 821 821 822 822 823 823 822 822 823 824 824 825 826 826 827
773 775 779 786 792 796 798 796 791 784 777 771 768 763 762 763 762 762 763 767 766 765 764 760 759 768 777 780 781 775 773 772 770 772 773 774 775 776 779 780 782 783 786 788 789 790 790 792 792 794 795 795 796 797 798 799 800 801 802 804 805 806 807 809 809 811 811 812 813 814 815 816 817 817 818 818 818 818 819 820 821 821 822 822 822 822 823 824 824 823 824 824 825 826 826 827 828
777 778 779 789 796 798 799 793 787 781 774 771 767 760 757 759 761 761 761 766 766 766 763 760 766 772 776 782 781 775 774 773 772 773 774 775 776 777 779 781 783 784 786 788 789 790 791 792 793 795 795 796 797 797 798 799 800 801 803 804 805 806 807 809 810 811 812 813 813 814 815 815 817 818 818 819 819 819 820 820 821 822 822 822 822 823 824 824 824 824 825 825 826 826 827 828 828
779 782 782 792 798 796 796 793 785 779 775 771 765 755 753 755 759 760 761 766 765 767 763 760 767 769 778 785 780 776 775 775 774 774 776 776 777 778 780 782 784 786 788 789 790 791 792 793 794 795 796 797 797 798 799 799 801 801 803 804 805 806 807 809 810 811 812 813 814 815 815 816 817 818 819 819 820 820 820 821 821 822 822 823 823 823 824 824 825 825 825 825 826 827 827 828 829
780 784 785 791 796 793 793 792 784 781 777 768 761 752 751 752 754 755 757 763 765 769 764 758 761 765 779 785 778 777 776 776 775 775 777 777 778 779 781 783 785 787 788 789 790 792 793 794 795 796 797 798 798 799 799 800 801 802 803 804 805 806 808 809 810 812 813 814 814 815 816 817 818 818 819 820 820 821 821 822 822 822 823 823 823 824 824 824 825 825 825 826 826 827 828 828 829
777 781 783 790 794 791 789 787 782 784 778 764 758 751 750 749 747 748 753 765 768 766 762 757 758 765 780 785 782 779 776 777 776 776 777 778 779 780 782 784 786 788 789 790 791 792 794 795 796 797 797 798 799 799 800 801 802 803 804 805 806 807 808 810 811 812 813 814 815 815 816 817 818 819 819 820 821 821 822 822 822 823 823 823 824 824 824 824 825 826 826 826 826 827 828 829 830
776 779 782 788 792 789 786 784 781 784 777 762 755 749 750 747 743 748 751 761 766 760 758 759 757 764 775 779 781 777 774 776 776 777 778 779 781 782 784 785 787 788 789 791 792 793 794 795 796 797 798 799 800 800 801 802 803 803 804 805 806 807 809 810 811 812 813 814 815 816 817 817 818 819 820 821 821 822 822 823 823 823 823 823 824 824 824 824 825 826 826 826 826 827 828 829 830
774 777 784 790 793 792 786 783 781 782 773 760 754 749 753 750 744 751 750 751 759 758 758 762 759 760 768 770 771 770 773 776 776 778 778 780 782 783 785 785 788 788 790 791 792 793 794 796 796 797 798 799 800 801 802 802 804 804 805 806 807 808 809 810 811 812 813 814 815 816 817 818 819 819 820 821 821 822 822 823 823 823 824 824 824 824 824 824 825 826 826 826 826 827 828 829 830
773 777 787 793 793 791 784 780 779 777 768 758 754 751 756 755 748 751 749 749 757 760 761 763 761 758 764 766 767 769 773 775 777 778 778 781 782 783 785 786 788 789 790 791 792 793 794 796 796 798 799 800 801 802 803 803 804 805 806 806 807 808 809 810 811 812 813 814 815 816 817 818 819 820 820 821 822 822 823 823 823 824 824 824 824 825 825 825 825 826 826 826 827 827 828 829 830
775 782 791 793 791 786 778 775 771 769 766 759 755 753 756 756 753 751 752 759 761 763 765 765 764 762 764 766 768 772 774 776 777 778 779 781 782 783 785 786 788 789 790 791 793 794 794 796 797 798 799 800 801 802 803 804 805 805 806 807 807 808 809 810 811 812 813 814 816 816 818 818 819 820 820 821 822 822 823 823 824 824 824 824 824 825 825 825 826 826 826 826 827 828 828 829 830
776 784 790 788 782 776 770 768 765 766 765 760 755 753 755 754 753 752 758 767 765 766 772 770 770 769 768 769 771 773 774 776 778 778 780 781 782 782 784 786 787 788 790 791 792 794 795 796 797 798 799 801 801 802 803 804 805 805 806 807 807 808 809 810 811 812 813 814 816 817 818 818 819 820 820 821 821 822 823 823 824 824 824 824 824 825 825 826 826 826 826 826 826 827 828 829 830
775 781 787 782 773 771 766 764 762 762 762 760 757 753 756 755 751 754 760 769 768 768 771 771 775 774 772 772 772 774 775 777 778 779 781 782 783 783 784 785 787 788 789 791 792 794 795 797 798 799 800 801 802 802 803 804 805 806 806 807 808 808 809 810 811 812 813 814 816 817 818 818 819 820 820 821 822 822 822 823 823 824 824 824 825 825 825 826 826 826 826 827 826 827 828 829 829
775 777 781 774 769 769 763 759 759 759 760 759 757 756 759 756 753 757 760 769 774 770 764 762 768 770 771 773 773 774 775 777 778 779 781 783 784 784 785 786 787 789 790 791 792 794 796 797 798 799 800 801 802 803 803 804 805 806 806 807 808 808 809 810 811 812 813 814 816 817 818 818 819 820 820 821 821 822 822 822 823 823 824 823 824 825 825 826 826 826 827 827 827 827 828 829 829
774 773 772 768 768 769 760 756 757 757 759 758 757 758 758 756 757 759 758 764 768 762 758 757 759 762 765 768 771 774 774 776 778 779 781 783 785 785 786 787 788 789 791 792 793 795 796 797 798 799 801 801 802 803 804 804 805 806 806 807 808 809 810 810 811 813 813 815 816 817 818 818 819 819 820 821 821 821 822 822 822 823 823 823 823 824 825 825 826 826 827 827 827 827 827 828 829
774 772 767 765 767 767 759 756 756 755 757 756 756 756 756 758 762 761 758 759 757 753 755 756 755 757 760 764 769 772 774 776 778 779 780 782 784 785 786 787 788 790 791 792 794 795 796 798 799 800 801 802 802 803 804 805 805 806 807 807 808 809 810 810 811 812 813 815 815 816 817 818 818 819 820 820 821 821 822 822 822 823 823 823 823 824 824 825 826 827 827 827 827 828 828 828 828
774 772 765 763 765 764 758 756 757 756 756 755 755 754 756 760 762 761 759 758 756 753 756 758 758 760 763 766 769 771 774 776 778 780 781 782 784 785 786 787 789 790 791 793 794 796 797 798 799 800 801 802 803 803 804 805 806 807 807 808 808 809 810 811 812 812 813 814 815 816 817 818 818 819 819 820 820 821 821 821 822 823 824 824 824 824 824 825 826 827 827 827 827 828 828 828 828
772 770 765 762 762 759 756 755 756 756 756 754 754 755 757 759 758 760 761 759 756 755 757 761 763 766 768 770 771 773 775 777 779 781 783 784 785 786 787 788 789 790 791 793 795 796 797 798 799 800 801 802 803 804 804 805 806 807 807 808 809 810 810 811 812 813 814 814 815 816 816 817 818 818 819 819 820 820 820 820 820 822 823 824 824 824 824 825 826 827 827 827 827 828 828 828 829
768 766 764 762 761 757 755 754 754 756 755 753 754 758 757 756 757 760 760 759 758 757 760 763 765 769 771 772 773 774 775 777 779 780 782 784 786 787 788 789 790 791 792 794 795 796 797 799 800 801 801 802 803 804 804 805 806 807 808 808 809 810 811 812 812 813 814 814 815 815 816 817 817 818 818 818 819 819 819 819 819 821 822 823 823 823 824 824 825 826 827 827 827 827 828 828 829
764 764 763 761 760 757 755 754 753 755 754 751 754 759 757 754 758 760 759 758 758 760 764 766 767 770 772 773 774 774 775 776 777 779 782 785 786 787 789 790 791 792 793 794 796 797 798 799 800 801 802 802 803 804 805 806 807 808 808 809 809 810 811 812 812 813 813 814 814 815 816 816 817 817 817 817 818 818 818 818 818 819 821 822 822 823 823 824 824 826 827 827 828 828 828 828 829
761 762 762 760 758 757 756 755 754 754 754 751 751 757 757 756 758 757 756 758 759 761 765 768 769 771 772 774 775 775 776 777 778 779 781 783 785 786 787 789 790 792 793 794 796 797 798 799 800 801 802 803 803 804 805 806 807 808 808 809 809 810 811 811 812 813 813 814 814 815 815 816 816 816 816 816 816 817 817 817 818 818 819 821 822 822 822 823 824 825 826 827 827 827 828 828 828
760 761 763 761 758 758 755 754 754 753 753 750 751 760 763 759 758 756 756 759 760 762 765 768 770 772 773 774 775 776 777 778 779 779 780 781 782 784 786 788 789 791 793 794 796 797 798 799 800 801 802 803 804 805 806 807 807 808 809 809 810 810 811 811 811 812 813 813 814 814 815 815 815 815 815 815 815 815 816 817 817 817 818 819 820 821 822 822 823 824 825 826 826 827 827 827 828
760 760 763 763 763 762 757 755 755 754 755 749 754 772 770 759 759 759 759 760 762 766 767 767 770 772 774 775 776 777 777 778 778 779 779 780 782 783 784 787 788 789 792 794 795 796 797 798 800 801 802 803 804 805 806 807 808 809 809 810 810 810 810 810 811 812 812 812 813 814 814 815 815 814 814 814 814 814 815 815 816 817 818 818 820 821 821 822 822 823 824 824 825 826 826 826 827
763 762 765 771 772 767 759 758 759 756 757 751 755 775 770 758 760 761 760 761 764 768 768 768 770 772 774 775 776 777 778 779 778 779 779 780 781 782 783 785 788 789 790 792 794 796 797 798 799 800 802 803 804 805 806 807 808 809 810 810 811 811 811 811 811 812 813 813 813 814 814 814 814 813 813 813 813 814 814 814 815 816 818 818 819 820 821 821 822 822 823 824 824 825 825 826 826
769 770 772 778 777 772 764 760 760 758 758 753 758 772 768 758 760 760 762 763 764 768 769 769 770 772 774 776 777 778 780 780 780 780 779 780 781 781 783 784 786 787 789 791 793 795 796 798 799 800 802 803 804 806 807 808 808 809 810 810 811 811 811 812 812 812 813 813 813 814 814 813 813 813 813 813 813 814 814 814 816 817 818 818 819 820 820 821 821 821 822 822 823 824 824 825 825
776 778 777 778 777 776 769 760 759 759 759 756 758 767 765 757 757 759 762 762 764 767 768 769 770 771 774 776 777 779 780 781 781 781 779 779 780 781 782 783 785 786 787 789 791 793 795 797 798 799 801 802 804 805 806 807 808 809 810 811 811 812 812 812 813 813 813 814 814 814 814 813 813 814 814 813 812 814 815 815 817 817 817 818 818 819 819 820 821 821 821 822 822 823 823 823 824
780 780 779 781 781 780 775 766 759 758 760 760 760 763 761 756 756 760 762 761 764 767 767 768 769 770 773 775 777 778 779 780 779 778 778 779 780 781 782 783 784 786 787 788 790 792 794 796 797 798 800 801 803 804 806 808 809 809 810 811 811 812 812 813 813 814 814 814 815 815 814 814 813 814 814 813 813 814 816 816 817 816 817 818 818 817 818 819 821 821 821 821 822 822 823 822 823
782 782 781 784 784 781 780 772 763 760 762 764 765 765 762 758 757 760 762 763 765 766 767 767 768 769 772 774 775 777 778 777 775 774 776 778 779 780 781 782 784 786 787 788 790 792 794 796 798 799 800 801 803 804 806 807 809 809 810 811 812 812 813 813 814 814 815 815 815 815 815 815 814 814 814 814 814 815 816 817 816 815 816 817 816 816 817 819 821 821 821 821 822 822 822 822 822
779 780 780 782 783 780 777 770 765 766 767 768 769 768 765 763 760 759 763 766 765 766 768 768 770 771 772 774 774 775 776 774 773 775 777 778 779 780 781 782 784 786 787 788 790 791 794 796 798 800 801 802 803 804 805 807 808 809 810 811 812 813 813 814 814 815 815 815 815 815 815 815 815 814 815 815 816 816 817 817 816 815 815 817 816 817 818 818 819 819 820 821 821 821 821 821 821
777 778 778 781 784 779 773 767 763 766 770 772 773 771 769 767 761 758 761 765 766 768 770 770 771 772 772 774 773 773 774 773 774 776 777 778 780 780 781 782 784 786 787 788 789 791 793 795 798 800 801 802 803 804 805 806 808 809 810 811 812 813 814 814 815 815 815 816 816 815 815 815 815 815 815 816 816 817 817 817 817 816 816 816 816 817 818 818 818 817 818 820 819 819 820 820 821
777 776 776 780 784 778 771 768 765 766 768 772 774 770 767 765 761 759 758 758 761 766 769 769 769 769 770 771 772 773 774 775 776 777 778 779 780 781 781 782 782 783 785 787 788 790 793 795 797 799 800 802 803 805 805 806 807 808 809 811 812 813 814 814 815 815 816 816 816 815 815 815 815 815 815 816 817 817 818 817 817 817 816 816 816 817 817 817 817 817 817 818 818 819 819 819 820
775 777 778 780 782 779 773 767 766 768 767 770 772 768 765 764 761 759 757 755 757 762 765 765 767 769 770 770 771 774 775 775 776 776 776 777 779 780 781 781 782 783 784 786 787 789 792 794 796 799 800 802 803 805 806 806 807 808 810 811 812 813 814 814 815 815 816 816 816 816 815 815 815 816 816 816 817 817 818 818 817 817 817 816 816 817 817 817 817 817 818 818 818 819 819 819 820
776 777 779 781 782 782 778 770 768 769 769 770 770 768 766 764 761 757 757 759 757 759 763 763 765 765 766 767 768 771 772 773 774 774 774 776 778 779 779 780 781 783 784 785 786 788 791 793 796 798 799 801 803 804 806 807 807 808 810 811 812 813 814 815 815 815 816 816 816 816 816 816 815 816 816 817 817 818 818 818 818 818 817 817 817 817 817 818 818 818 819 818 818 819 819 819 820
778 776 776 777 777 778 778 775 771 769 772 772 770 772 771 767 766 758 757 762 757 757 760 760 763 763 762 764 766 768 769 769 770 771 772 774 775 775 777 779 781 782 782 783 785 787 789 792 795 797 799 800 802 803 805 806 807 808 809 811 812 813 814 815 815 815 815 816 816 817 816 816 815 815 816 817 818 818 818 819 819 818 818 818 818 818 818 819 819 819 819 819 818 818 818 819 819
779 775 771 770 771 774 777 778 777 778 779 776 775 784 781 773 771 764 759 762 758 758 760 756 757 761 763 764 764 765 767 768 768 768 769 769 770 773 776 778 779 779 780 782 784 786 789 791 794 796 798 799 801 802 804 805 806 807 808 810 811 812 813 814 814 814 815 816 816 817 817 816 816 816 817 817 818 818 819 819 819 819 819 819 819 819 819 819 819 819 819 819 819 818 818 819 820
782 773 766 768 772 775 778 778 780 785 786 782 781 787 787 778 770 764 763 763 758 757 759 755 753 757 761 761 759 761 763 765 767 767 767 767 768 772 775 775 775 776 778 781 784 786 788 790 793 795 796 798 800 801 803 804 805 806 806 808 809 811 812 813 814 814 815 816 816 817 817 817 816 816 817 817 818 818 819 819 819 819 819 819 819 819 819 819 819 819 819 819 819 819 819 819 820
778 768 764 769 772 774 777 777 780 783 783 784 783 783 789 787 772 765 768 767 760 757 756 754 752 753 757 757 755 756 757 759 763 765 765 765 766 769 769 770 771 774 778 781 783 785 787 790 792 794 796 797 799 800 802 803 804 805 805 807 808 810 811 812 813 814 815 815 816 817 817 817 817 817 817 817 818 818 819 819 819 819 819 819 820 820 819 819 819 820 820 820 819 819 819 820 821
768 765 768 770 770 772 774 776 780 786 786 786 785 784 792 794 777 769 773 771 764 759 754 752 750 749 752 753 752 751 752 755 757 759 760 761 763 765 765 766 770 773 776 778 781 784 787 790 792 794 795 796 797 799 800 801 802 803 804 806 807 809 811 812 813 814 814 815 816 816 817 817 817 817 817 818 818 819 819 819 819 819 819 819 820 820 820 820 820 820 820 820 820 820 820 820 820
763 765 770 770 772 776 778 779 780 786 792 788 783 784 792 795 781 772 774 772 766 759 754 752 750 748 746 747 748 749 750 753 753 754 755 755 757 759 763 767 770 772 775 777 780 783 786 788 790 792 794 795 796 797 799 800 801 802 803 804 806 808 809 811 812 813 814 814 815 816 816 817 817 817 817 818 818 819 819 820 819 819 819 819 820 820 820 820 820 820 820 820 820 820 820 820 821
763 765 769 771 775 777 781 786 783 789 796 787 780 783 789 794 785 772 770 768 764 760 756 753 750 747 743 742 744 746 747 749 750 751 751 752 756 761 765 768 770 772 775 778 780 781 784 786 788 790 792 794 795 796 797 799 800 800 802 803 804 806 808 810 811 812 813 814 814 815 816 816 817 817 818 818 818 819 819 820 820 820 820 819 820 820 820 820 820 820 820 820 821 821 821 821 821
764 766 771 776 781 781 783 787 787 794 797 784 783 788 790 792 782 768 766 765 763 763 759 756 753 749 745 741 742 746 747 746 746 748 750 754 758 762 765 767 770 773 774 776 777 779 781 782 785 788 790 792 793 795 796 797 798 799 800 802 803 805 807 808 809 810 811 812 813 814 815 815 816 817 817 818 818 819 819 819 820 820 820 820 820 819 820 820 820 820 820 820 820 820 820 820 820
767 769 776 785 792 795 794 793 795 799 793 786 790 791 789 787 775 766 766 763 761 762 760 759 757 752 749 746 744 745 749 750 748 747 748 753 757 759 762 765 768 770 770 772 774 776 778 780 783 785 786 789 791 793 795 796 797 798 799 800 802 804 805 807 808 809 810 811 812 813 814 814 815 816 817 817 818 819 819 819 819 819 819 820 820 819 819 819 820 820 820 820 819 819 819 819 819
768 769 775 786 798 806 805 804 807 802 790 788 794 790 787 784 775 770 768 764 762 762 762 761 756 754 752 751 749 746 746 750 752 752 752 753 754 756 759 762 764 765 766 768 771 774 776 779 781 782 784 786 789 791 793 795 796 797 798 799 800 802 804 805 807 808 809 810 811 812 813 813 814 815 816 817 817 818 819 819 819 819 819 819 819 819 819 819 819 819 819 819 820 820 819 819 819
770 770 773 779 786 795 799 797 797 795 789 789 790 785 782 781 778 774 768 765 766 765 763 761 756 754 752 751 752 752 750 748 750 753 755 755 754 754 756 758 760 761 763 765 768 771 774 776 778 780 782 784 787 789 791 792 794 796 797 798 799 800 802 803 805 806 807 809 810 811 811 812 813 814 815 816 816 817 818 818 819 819 819 819 819 819 819 819 819 819 819 819 820 820 820 820 819
773 773 773 775 774 776 788 795 793 792 791 789 787 783 781 781 778 773 769 768 767 765 762 759 758 755 752 752 755 755 755 754 751 752 754 757 758 757 756 756 757 758 760 763 766 769 771 773 775 778 780 782 784 786 788 790 793 795 796 796 797 798 800 802 803 805 806 807 808 809 810 811 812 813 814 815 815 816 817 817 818 818 818 818 819 819 819 819 819 819 819 819 819 820 820 820 820
772 774 772 773 771 769 782 798 801 798 795 793 792 784 778 781 778 770 769 769 766 766 762 761 762 757 755 758 759 758 757 757 756 755 754 755 758 759 760 760 760 760 762 762 763 764 766 769 773 776 778 781 782 784 786 788 790 792 794 795 796 797 798 799 801 802 804 805 807 808 809 810 811 812 813 813 814 815 816 816 816 817 817 817 818 818 818 818 818 818 818 818 819 819 819 819 819
768 774 770 770 773 771 777 790 797 802 802 797 794 788 780 781 781 774 771 770 770 770 765 763 763 759 759 763 762 760 759 758 758 756 755 755 756 758 760 762 763 764 765 765 765 765 766 768 771 773 775 777 779 781 783 786 788 790 792 793 794 795 796 798 799 800 802 804 805 806 807 808 809 811 811 812 813 814 814 815 815 816 816 816 816 816 817 817 817 817 817 817 817 818 818 818 818
763 768 768 772 778 778 781 789 794 800 805 799 794 795 789 780 777 775 774 774 773 772 768 765 765 764 765 765 763 762 759 758 759 756 755 755 756 757 758 760 762 763 765 766 768 770 771 771 772 772 773 774 777 779 781 784 786 787 790 791 792 794 795 796 797 799 800 801 802 804 805 807 808 809 810 811 812 813 813 814 814 815 815 815 815 815 816 816 816 816 816 816 816 816 816 816 817
764 765 769 775 780 783 785 790 791 792 800 801 795 794 788 775 771 772 773 775 774 771 768 768 769 769 768 767 766 764 762 760 760 757 756 755 755 756 757 758 760 761 763 765 766 768 770 772 774 774 774 775 777 778 780 781 783 785 787 789 791 792 793 795 796 797 798 799 800 802 803 805 806 807 808 809 810 811 812 813 813 814 814 814 814 814 815 815 815 815 814 814 814 814 814 814 814
771 771 774 776 780 786 787 789 791 789 793 799 797 792 781 771 772 771 770 774 773 769 768 768 769 770 770 770 768 765 764 763 762 760 758 756 756 757 757 758 758 759 762 763 764 766 767 770 772 773 775 775 775 776 777 779 780 783 785 786 788 790 791 792 794 795 796 796 798 799 801 803 804 805 806 807 809 810 811 812 812 813 813 813 814 814 814 814 814 814 813 813 813 813 813 812 812
775 774 776 778 781 785 787 790 794 791 790 794 796 793 780 772 775 774 771 773 772 769 768 767 768 769 770 771 769 767 765 764 764 763 760 759 759 759 759 759 760 760 761 761 763 764 766 767 768 769 772 773 773 774 775 776 778 780 782 783 785 787 788 790 791 791 793 794 795 797 799 800 802 803 804 805 807 808 809 810 811 812 812 812 813 813 813 813 813 813 813 812 812 812 811 811 811